QPF
0.00 0.00 0.00 0.00 0.00 0.00 0.00 0.00 0.00 0.00 0.00 0.00 0.00 0.00 0.00 0.01 0.01 0.02 0.01 0.00 0.01 0.01 0.01 0.01 0.01 0.02 0.03 0.03 0.02 0.02 0.03 0.03 0.03 0.03 0.03 0.04 0.05 0.06 0.06 0.06 0.05 0.04 0.05 0.07 0.08 0.12 0.10 0.07 0.05
0.00 0.00 0.00 0.00 0.00 0.00 0.00 0.00 0.00 0.00 0.00 0.00 0.00 0.00 0.00 0.00 0.00 0.01 0.01 0.00 0.01 0.01 0.01 0.01 0.01 0.01 0.02 0.03 0.03 0.03 0.03 0.03 0.05 0.04 0.03 0.04 0.05 0.04 0.04 0.04 0.04 0.05 0.05 0.07 0.08 0.08 0.09 0.08 0.06
0.00 0.00 0.00 0.00 0.00 0.00 0.00 0.00 0.00 0.00 0.00 0.00 0.00 0.00 0.00 0.00 0.00 0.00 0.00 0.01 0.01 0.01 0.01 0.01 0.02 0.01 0.02 0.02 0.03 0.03 0.03 0.04 0.05 0.03 0.03 0.04 0.04 0.04 0.03 0.03 0.04 0.05 0.06 0.06 0.08 0.07 0.06 0.06 0.05
0.00 0.00 0.00 0.00 0.00 0.00 0.00 0.00 0.00 0.00 0.00 0.00 0.00 0.00 0.00 0.00 0.00 0.00 0.00 0.01 0.01 0.01 0.01 0.01 0.02 0.02 0.02 0.02 0.02 0.03 0.03 0.05 0.04 0.02 0.03 0.04 0.04 0.05 0.04 0.04 0.04 0.05 0.05 0.06 0.07 0.07 0.07 0.06 0.04
0.01 0.01 0.00 0.00 0.00 0.00 0.00 0.00 0.00 0.00 0.00 0.00 0.00 0.00 0.00 0.00 0.00 0.00 0.01 0.01 0.01 0.01 0.01 0.01 0.01 0.01 0.02 0.01 0.01 0.01 0.02 0.03 0.03 0.02 0.02 0.02 0.03 0.04 0.05 0.05 0.05 0.06 0.06 0.06 0.06 0.07 0.08 0.06 0.04
0.01 0.02 0.01 0.00 0.00 0.00 0.00 0.00 0.00 0.00 0.00 0.00 0.00 0.00 0.00 0.00 0.00 0.00 0.00 0.01 0.01 0.01 0.01 0.01 0.01 0.02 0.02 0.01 0.01 0.01 0.02 0.02 0.02 0.02 0.02 0.02 0.02 0.03 0.04 0.04 0.05 0.06 0.07 0.07 0.06 0.07 0.10 0.09 0.06
0.01 0.02 0.01 0.00 0.00 0.00 0.00 0.00 0.00 0.00 0.00 0.00 0.00 0.00 0.00 0.00 0.00 0.00 0.00 0.00 0.00 0.00 0.00 0.01 0.01 0.01 0.01 0.01 0.01 0.01 0.01 0.02 0.02 0.02 0.01 0.01 0.01 0.02 0.03 0.03 0.03 0.04 0.05 0.07 0.07 0.08 0.09 0.09 0.08
0.00 0.01 0.01 0.01 0.00 0.00 0.00 0.00 0.00 0.00 0.00 0.00 0.00 0.00 0.00 0.01 0.00 0.00 0.00 0.01 0.01 0.01 0.00 0.00 0.01 0.01 0.01 0.02 0.01 0.01 0.01 0.02 0.01 0.02 0.02 0.01 0.00 0.01 0.01 0.03 0.03 0.02 0.03 0.05 0.06 0.07 0.08 0.07 0.08
0.00 0.01 0.01 0.00 0.00 0.00 0.00 0.00 0.00 0.00 0.01 0.00 0.00 0.00 0.00 0.01 0.01 0.00 0.00 0.00 0.01 0.01 0.01 0.01 0.01 0.01 0.02 0.03 0.02 0.01 0.01 0.01 0.01 0.01 0.01 0.01 0.01 0.01 0.01 0.01 0.03 0.04 0.04 0.04 0.06 0.06 0.08 0.10 0.09
0.00 0.00 0.00 0.00 0.00 0.00 0.00 0.01 0.01 0.01 0.01 0.01 0.00 0.00 0.00 0.00 0.00 0.00 0.01 0.01 0.02 0.02 0.02 0.02 0.02 0.02 0.03 0.04 0.04 0.03 0.01 0.01 0.01 0.01 0.01 0.01 0.01 0.01 0.01 0.01 0.01 0.02 0.03 0.05 0.06 0.07 0.08 0.09 0.09
0.00 0.00 0.00 0.00 0.01 0.01 0.01 0.01 0.01 0.01 0.01 0.00 0.00 0.00 0.00 0.00 0.00 0.01 0.01 0.02 0.03 0.02 0.02 0.03 0.03 0.04 0.04 0.05 0.04 0.04 0.04 0.03 0.02 0.02 0.01 0.02 0.01 0.00 0.00 0.01 0.01 0.02 0.01 0.03 0.05 0.06 0.05 0.06 0.08
0.00 0.00 0.00 0.00 0.01 0.01 0.01 0.01 0.01 0.01 0.00 0.00 0.00 0.00 0.00 0.01 0.00 0.01 0.01 0.02 0.02 0.02 0.02 0.02 0.03 0.04 0.05 0.06 0.06 0.05 0.05 0.05 0.05 0.05 0.04 0.03 0.02 0.01 0.01 0.00 0.01 0.01 0.02 0.04 0.06 0.05 0.05 0.04 0.04
0.00 0.00 0.00 0.00 0.00 0.00 0.00 0.00 0.01 0.00 0.00 0.00 0.00 0.00 0.00 0.00 0.01 0.00 0.00 0.01 0.01 0.02 0.02 0.03 0.04 0.07 0.08 0.08 0.08 0.07 0.05 0.04 0.04 0.04 0.05 0.04 0.04 0.03 0.03 0.02 0.01 0.01 0.02 0.03 0.04 0.05 0.05 0.05 0.05
0.00 0.00 0.00 0.00 0.01 0.00 0.01 0.00 0.00 0.00 0.00 0.00 0.00 0.00 0.00 0.00 0.00 0.01 0.01 0.01 0.01 0.01 0.02 0.03 0.05 0.06 0.08 0.08 0.07 0.05 0.04 0.03 0.02 0.02 0.03 0.04 0.04 0.03 0.02 0.02 0.02 0.02 0.02 0.03 0.04 0.05 0.05 0.05 0.06
0.00 0.00 0.00 0.01 0.01 0.01 0.01 0.00 0.00 0.00 0.00 0.00 0.00 0.00 0.00 0.00 0.00 0.00 0.00 0.01 0.01 0.01 0.02 0.03 0.03 0.04 0.05 0.05 0.04 0.03 0.02 0.02 0.01 0.01 0.02 0.04 0.04 0.03 0.02 0.02 0.02 0.02 0.02 0.03 0.04 0.05 0.05 0.06 0.06
0.00 0.00 0.00 0.00 0.01 0.01 0.02 0.01 0.00 0.00 0.00 0.00 0.00 0.00 0.00 0.00 0.00 0.00 0.00 0.00 0.01 0.01 0.01 0.02 0.02 0.02 0.03 0.04 0.03 0.03 0.02 0.01 0.01 0.00 0.01 0.01 0.01 0.01 0.02 0.02 0.02 0.02 0.03 0.03 0.04 0.04 0.04 0.04 0.05
0.00 0.00 0.00 0.00 0.01 0.01 0.02 0.01 0.00 0.00 0.00 0.00 0.00 0.00 0.00 0.00 0.00 0.00 0.00 0.00 0.00 0.00 0.01 0.01 0.02 0.02 0.03 0.03 0.03 0.04 0.03 0.02 0.01 0.01 0.01 0.01 0.01 0.01 0.01 0.02 0.02 0.03 0.04 0.05 0.05 0.04 0.03 0.03 0.03
0.01 0.01 0.00 0.00 0.01 0.01 0.01 0.01 0.01 0.00 0.00 0.00 0.00 0.00 0.00 0.01 0.01 0.01 0.01 0.01 0.00 0.00 0.00 0.01 0.01 0.01 0.02 0.02 0.03 0.03 0.03 0.03 0.02 0.02 0.02 0.01 0.01 0.01 0.01 0.01 0.01 0.01 0.02 0.03 0.04 0.04 0.04 0.04 0.05
0.01 0.01 0.01 0.01 0.01 0.01 0.01 0.01 0.02 0.01 0.01 0.01 0.01 0.01 0.01 0.01 0.01 0.01 0.01 0.01 0.01 0.01 0.01 0.00 0.01 0.01 0.01 0.01 0.02 0.02 0.02 0.02 0.03 0.03 0.03 0.02 0.02 0.01 0.01 0.01 0.01 0.01 0.02 0.02 0.02 0.03 0.04 0.04 0.05
0.01 0.01 0.01 0.01 0.01 0.01 0.01 0.01 0.02 0.01 0.01 0.01 0.02 0.01 0.01 0.01 0.01 0.01 0.01 0.01 0.01 0.01 0.01 0.01 0.01 0.01 0.01 0.01 0.01 0.01 0.01 0.02 0.02 0.03 0.04 0.04 0.03 0.02 0.02 0.03 0.03 0.02 0.02 0.02 0.02 0.03 0.04 0.05 0.05
0.01 0.01 0.01 0.01 0.01 0.01 0.01 0.01 0.01 0.01 0.01 0.00 0.01 0.01 0.01 0.01 0.01 0.00 0.01 0.01 0.01 0.01 0.01 0.01 0.01 0.01 0.01 0.01 0.01 0.01 0.01 0.02 0.02 0.03 0.03 0.05 0.04 0.03 0.03 0.04 0.04 0.02 0.02 0.03 0.03 0.04 0.04 0.05 0.05
0.01 0.00 0.01 0.01 0.01 0.01 0.01 0.02 0.01 0.01 0.01 0.00 0.00 0.01 0.01 0.01 0.01 0.00 0.01 0.01 0.01 0.01 0.01 0.01 0.01 0.01 0.01 0.01 0.01 0.02 0.02 0.02 0.02 0.03 0.04 0.04 0.04 0.03 0.03 0.04 0.04 0.03 0.03 0.03 0.03 0.03 0.03 0.04 0.05
0.01 0.00 0.00 0.01 0.01 0.02 0.01 0.01 0.01 0.00 0.00 0.00 0.00 0.00 0.01 0.01 0.01 0.01 0.01 0.01 0.01 0.01 0.01 0.01 0.01 0.01 0.01 0.01 0.01 0.01 0.02 0.02 0.02 0.03 0.04 0.04 0.04 0.03 0.03 0.04 0.04 0.04 0.04 0.04 0.04 0.04 0.03 0.02 0.03
0.01 0.00 0.00 0.01 0.02 0.03 0.01 0.01 0.01 0.00 0.00 0.00 0.00 0.01 0.01 0.01 0.01 0.01 0.01 0.00 0.00 0.00 0.00 0.00 0.01 0.01 0.01 0.01 0.01 0.01 0.01 0.02 0.02 0.02 0.03 0.05 0.04 0.03 0.03 0.04 0.04 0.03 0.04 0.03 0.03 0.03 0.03 0.02 0.02
0.01 0.01 0.02 0.02 0.03 0.03 0.01 0.01 0.01 0.00 0.00 0.00 0.00 0.01 0.01 0.01 0.01 0.01 0.00 0.00 0.00 0.00 0.00 0.00 0.00 0.01 0.01 0.01 0.01 0.02 0.01 0.01 0.02 0.02 0.02 0.03 0.04 0.04 0.02 0.03 0.04 0.03 0.03 0.03 0.02 0.02 0.02 0.02 0.03
0.01 0.01 0.02 0.03 0.02 0.02 0.01 0.01 0.01 0.00 0.00 0.00 0.00 0.01 0.01 0.01 0.01 0.01 0.01 0.01 0.00 0.00 0.00 0.00 0.00 0.00 0.00 0.01 0.01 0.02 0.02 0.01 0.01 0.02 0.02 0.02 0.02 0.03 0.03 0.02 0.03 0.04 0.04 0.04 0.03 0.03 0.02 0.02 0.02
0.01 0.02 0.02 0.03 0.01 0.01 0.00 0.00 0.00 0.00 0.00 0.00 0.00 0.01 0.01 0.02 0.01 0.01 0.01 0.01 0.01 0.00 0.00 0.00 0.00 0.00 0.00 0.01 0.01 0.02 0.02 0.02 0.01 0.01 0.02 0.01 0.01 0.02 0.03 0.04 0.03 0.03 0.04 0.05 0.05 0.04 0.04 0.03 0.03
0.01 0.01 0.02 0.03 0.03 0.01 0.01 0.00 0.00 0.00 0.00 0.01 0.01 0.01 0.01 0.02 0.02 0.01 0.01 0.01 0.01 0.01 0.00 0.00 0.00 0.00 0.00 0.01 0.01 0.02 0.02 0.02 0.02 0.01 0.01 0.01 0.01 0.01 0.02 0.04 0.04 0.04 0.03 0.03 0.04 0.04 0.04 0.04 0.03
0.01 0.01 0.02 0.03 0.02 0.02 0.02 0.01 0.00 0.00 0.00 0.01 0.01 0.01 0.01 0.01 0.01 0.01 0.01 0.01 0.01 0.01 0.01 0.00 0.00 0.00 0.00 0.01 0.01 0.02 0.02 0.02 0.02 0.02 0.01 0.01 0.01 0.01 0.01 0.03 0.04 0.04 0.04 0.03 0.03 0.03 0.03 0.03 0.03
0.00 0.01 0.02 0.03 0.02 0.01 0.02 0.01 0.00 0.00 0.00 0.01 0.01 0.01 0.01 0.01 0.02 0.01 0.01 0.01 0.01 0.01 0.01 0.00 0.00 0.00 0.00 0.01 0.01 0.02 0.03 0.03 0.02 0.02 0.02 0.01 0.01 0.01 0.01 0.02 0.02 0.03 0.03 0.04 0.04 0.03 0.02 0.03 0.03
MSLP
1012.39 1012.78 1013.46 1014.34 1015.29 1016.17 1016.88 1017.34 1017.57 1017.62 1017.64 1017.74 1018.01 1018.51 1019.20 1019.98 1020.73 1021.30 1021.60 1021.59 1021.31 1020.85 1020.31 1019.82 1019.46 1019.25 1019.16 1019.13 1019.09 1018.97 1018.76 1018.45 1018.11 1017.79 1017.56 1017.45 1017.45 1017.55 1017.69 1017.83 1017.93 1017.97 1017.97 1017.95 1017.94 1017.97 1018.03 1018.12 1018.20
1012.69 1013.19 1013.97 1014.91 1015.90 1016.79 1017.48 1017.93 1018.14 1018.19 1018.22 1018.33 1018.61 1019.10 1019.75 1020.48 1021.16 1021.66 1021.90 1021.87 1021.58 1021.14 1020.66 1020.22 1019.90 1019.71 1019.63 1019.59 1019.52 1019.38 1019.14 1018.82 1018.48 1018.17 1017.93 1017.80 1017.77 1017.81 1017.88 1017.94 1017.96 1017.95 1017.92 1017.90 1017.91 1017.98 1018.09 1018.22 1018.33
1013.04 1013.65 1014.50 1015.47 1016.46 1017.33 1017.99 1018.41 1018.61 1018.68 1018.73 1018.86 1019.16 1019.64 1020.26 1020.93 1021.54 1021.96 1022.15 1022.09 1021.81 1021.41 1020.97 1020.59 1020.32 1020.16 1020.09 1020.04 1019.95 1019.79 1019.55 1019.23 1018.90 1018.59 1018.35 1018.20 1018.12 1018.09 1018.06 1018.02 1017.95 1017.86 1017.78 1017.74 1017.76 1017.86 1018.02 1018.20 1018.36
1013.44 1014.13 1015.02 1016.00 1016.97 1017.80 1018.43 1018.83 1019.04 1019.14 1019.23 1019.41 1019.73 1020.20 1020.78 1021.38 1021.91 1022.26 1022.39 1022.30 1022.03 1021.67 1021.30 1020.98 1020.76 1020.64 1020.57 1020.51 1020.41 1020.23 1019.97 1019.66 1019.33 1019.03 1018.79 1018.61 1018.48 1018.37 1018.25 1018.10 1017.92 1017.75 1017.61 1017.54 1017.57 1017.69 1017.88 1018.10 1018.31
1013.87 1014.61 1015.53 1016.51 1017.44 1018.24 1018.84 1019.24 1019.48 1019.63 1019.79 1020.03 1020.38 1020.85 1021.39 1021.92 1022.35 1022.62 1022.68 1022.57 1022.32 1022.00 1021.69 1021.44 1021.28 1021.18 1021.12 1021.05 1020.91 1020.70 1020.42 1020.09 1019.76 1019.46 1019.21 1019.01 1018.83 1018.65 1018.44 1018.20 1017.93 1017.67 1017.47 1017.37 1017.38 1017.50 1017.72 1017.96 1018.19
1014.32 1015.12 1016.05 1017.01 1017.91 1018.68 1019.27 1019.70 1019.99 1020.23 1020.48 1020.79 1021.18 1021.66 1022.15 1022.60 1022.93 1023.11 1023.11 1022.97 1022.73 1022.46 1022.21 1022.02 1021.90 1021.83 1021.76 1021.65 1021.47 1021.21 1020.89 1020.53 1020.18 1019.86 1019.59 1019.37 1019.15 1018.92 1018.65 1018.34 1018.00 1017.68 1017.43 1017.28 1017.26 1017.36 1017.56 1017.81 1018.04
1014.83 1015.67 1016.60 1017.54 1018.42 1019.17 1019.78 1020.25 1020.63 1020.96 1021.31 1021.71 1022.16 1022.63 1023.08 1023.46 1023.69 1023.78 1023.71 1023.54 1023.30 1023.06 1022.86 1022.73 1022.64 1022.58 1022.49 1022.33 1022.09 1021.76 1021.37 1020.96 1020.57 1020.23 1019.95 1019.70 1019.46 1019.20 1018.89 1018.53 1018.15 1017.79 1017.49 1017.29 1017.22 1017.28 1017.44 1017.65 1017.85
1015.42 1016.28 1017.21 1018.14 1018.99 1019.74 1020.37 1020.91 1021.38 1021.83 1022.29 1022.78 1023.28 1023.76 1024.17 1024.47 1024.62 1024.61 1024.48 1024.26 1024.02 1023.81 1023.64 1023.54 1023.47 1023.39 1023.26 1023.05 1022.73 1022.33 1021.86 1021.40 1020.96 1020.59 1020.28 1020.02 1019.76 1019.49 1019.17 1018.79 1018.38 1017.99 1017.64 1017.40 1017.27 1017.26 1017.34 1017.48 1017.63
1016.08 1016.97 1017.90 1018.81 1019.65 1020.40 1021.06 1021.66 1022.22 1022.78 1023.35 1023.92 1024.48 1024.96 1025.34 1025.57 1025.64 1025.56 1025.36 1025.11 1024.86 1024.65 1024.50 1024.40 1024.33 1024.22 1024.05 1023.76 1023.37 1022.89 1022.35 1021.82 1021.34 1020.94 1020.60 1020.33 1020.07 1019.80 1019.47 1019.09 1018.67 1018.25 1017.87 1017.57 1017.37 1017.27 1017.27 1017.31 1017.38
1016.84 1017.74 1018.67 1019.56 1020.38 1021.13 1021.81 1022.46 1023.10 1023.75 1024.41 1025.05 1025.64 1026.14 1026.49 1026.67 1026.67 1026.53 1026.29 1026.01 1025.74 1025.52 1025.36 1025.26 1025.15 1025.01 1024.78 1024.43 1023.96 1023.41 1022.82 1022.24 1021.72 1021.29 1020.94 1020.65 1020.39 1020.12 1019.79 1019.42 1018.99 1018.55 1018.13 1017.77 1017.49 1017.31 1017.20 1017.15 1017.12
1017.64 1018.57 1019.48 1020.35 1021.15 1021.89 1022.58 1023.27 1023.96 1024.67 1025.38 1026.07 1026.69 1027.18 1027.51 1027.66 1027.62 1027.44 1027.17 1026.86 1026.58 1026.35 1026.17 1026.04 1025.90 1025.70 1025.41 1025.00 1024.48 1023.88 1023.25 1022.64 1022.09 1021.64 1021.28 1020.98 1020.72 1020.44 1020.11 1019.73 1019.29 1018.83 1018.37 1017.96 1017.61 1017.33 1017.14 1016.99 1016.89
1018.46 1019.39 1020.29 1021.14 1021.91 1022.64 1023.33 1024.02 1024.74 1025.47 1026.21 1026.92 1027.54 1028.03 1028.34 1028.47 1028.42 1028.22 1027.94 1027.63 1027.33 1027.09 1026.88 1026.71 1026.52 1026.26 1025.92 1025.46 1024.90 1024.27 1023.62 1023.00 1022.45 1021.99 1021.62 1021.32 1021.04 1020.74 1020.40 1020.00 1019.54 1019.06 1018.56 1018.10 1017.69 1017.35 1017.08 1016.86 1016.69
1019.23 1020.16 1021.05 1021.86 1022.62 1023.32 1024.00 1024.69 1025.40 1026.14 1026.87 1027.56 1028.17 1028.65 1028.95 1029.07 1029.02 1028.84 1028.57 1028.27 1027.98 1027.71 1027.48 1027.26 1027.02 1026.71 1026.31 1025.82 1025.23 1024.60 1023.95 1023.33 1022.79 1022.33 1021.95 1021.63 1021.33 1021.01 1020.64 1020.21 1019.73 1019.21 1018.69 1018.18 1017.73 1017.34 1017.02 1016.76 1016.56
1019.89 1020.81 1021.68 1022.48 1023.21 1023.90 1024.57 1025.25 1025.94 1026.66 1027.36 1028.03 1028.61 1029.06 1029.36 1029.49 1029.46 1029.31 1029.07 1028.79 1028.51 1028.24 1027.98 1027.72 1027.42 1027.06 1026.62 1026.09 1025.49 1024.86 1024.22 1023.63 1023.10 1022.64 1022.25 1021.91 1021.57 1021.22 1020.81 1020.35 1019.83 1019.29 1018.73 1018.20 1017.72 1017.31 1016.97 1016.70 1016.49
1020.41 1021.31 1022.16 1022.94 1023.67 1024.35 1025.02 1025.69 1026.38 1027.07 1027.74 1028.38 1028.92 1029.35 1029.64 1029.78 1029.79 1029.67 1029.48 1029.24 1028.98 1028.71 1028.43 1028.12 1027.77 1027.36 1026.88 1026.33 1025.72 1025.10 1024.47 1023.89 1023.37 1022.91 1022.51 1022.13 1021.76 1021.36 1020.91 1020.41 1019.86 1019.29 1018.71 1018.17 1017.68 1017.26 1016.92 1016.65 1016.44
1020.80 1021.66 1022.48 1023.25 1023.98 1024.67 1025.35 1026.04 1026.72 1027.40 1028.06 1028.66 1029.18 1029.59 1029.87 1030.03 1030.06 1030.00 1029.85 1029.65 1029.41 1029.15 1028.85 1028.51 1028.12 1027.66 1027.15 1026.57 1025.96 1025.33 1024.72 1024.14 1023.62 1023.14 1022.71 1022.30 1021.88 1021.43 1020.94 1020.40 1019.82 1019.23 1018.64 1018.09 1017.59 1017.18 1016.84 1016.59 1016.39
1021.08 1021.89 1022.66 1023.42 1024.15 1024.87 1025.59 1026.30 1027.01 1027.69 1028.34 1028.93 1029.43 1029.82 1030.11 1030.28 1030.34 1030.31 1030.21 1030.05 1029.84 1029.58 1029.27 1028.91 1028.48 1027.99 1027.45 1026.85 1026.23 1025.59 1024.98 1024.39 1023.85 1023.34 1022.87 1022.41 1021.94 1021.45 1020.91 1020.34 1019.75 1019.14 1018.54 1017.98 1017.49 1017.07 1016.74 1016.48 1016.30
1021.33 1022.05 1022.77 1023.50 1024.23 1024.98 1025.73 1026.49 1027.23 1027.94 1028.60 1029.19 1029.68 1030.07 1030.36 1030.55 1030.64 1030.64 1030.57 1030.44 1030.25 1030.00 1029.69 1029.31 1028.86 1028.35 1027.79 1027.18 1026.54 1025.90 1025.26 1024.65 1024.07 1023.52 1022.99 1022.47 1021.95 1021.41 1020.85 1020.25 1019.65 1019.03 1018.44 1017.88 1017.38 1016.95 1016.60 1016.33 1016.13
1021.61 1022.23 1022.87 1023.55 1024.27 1025.02 1025.81 1026.61 1027.39 1028.14 1028.82 1029.42 1029.92 1030.32 1030.62 1030.82 1030.93 1030.96 1030.91 1030.80 1030.63 1030.39 1030.07 1029.69 1029.24 1028.73 1028.15 1027.54 1026.89 1026.23 1025.56 1024.91 1024.28 1023.66 1023.07 1022.49 1021.91 1021.33 1020.74 1020.14 1019.54 1018.93 1018.34 1017.79 1017.28 1016.83 1016.45 1016.14 1015.90
1022.00 1022.50 1023.04 1023.64 1024.32 1025.06 1025.85 1026.66 1027.48 1028.25 1028.96 1029.58 1030.11 1030.52 1030.83 1031.05 1031.17 1031.22 1031.19 1031.10 1030.93 1030.70 1030.39 1030.02 1029.58 1029.07 1028.50 1027.89 1027.24 1026.57 1025.87 1025.17 1024.47 1023.79 1023.12 1022.46 1021.83 1021.21 1020.61 1020.01 1019.42 1018.84 1018.27 1017.73 1017.21 1016.74 1016.32 1015.95 1015.65
1022.55 1022.91 1023.34 1023.84 1024.44 1025.12 1025.88 1026.68 1027.49 1028.28 1029.00 1029.64 1030.18 1030.61 1030.94 1031.17 1031.32 1031.38 1031.36 1031.28 1031.12 1030.90 1030.60 1030.25 1029.82 1029.34 1028.80 1028.21 1027.57 1026.88 1026.16 1025.40 1024.64 1023.87 1023.12 1022.40 1021.71 1021.06 1020.44 1019.86 1019.30 1018.76 1018.23 1017.71 1017.20 1016.70 1016.23 1015.81 1015.43
1023.26 1023.50 1023.81 1024.19 1024.68 1025.27 1025.95 1026.69 1027.46 1028.21 1028.92 1029.55 1030.10 1030.55 1030.91 1031.16 1031.33 1031.41 1031.40 1031.33 1031.18 1030.96 1030.68 1030.35 1029.95 1029.51 1029.01 1028.44 1027.82 1027.13 1026.39 1025.59 1024.76 1023.92 1023.08 1022.29 1021.54 1020.86 1020.24 1019.68 1019.17 1018.69 1018.21 1017.73 1017.24 1016.74 1016.24 1015.75 1015.30
1024.10 1024.26 1024.46 1024.73 1025.09 1025.55 1026.11 1026.74 1027.41 1028.09 1028.75 1029.35 1029.90 1030.36 1030.73 1031.02 1031.21 1031.31 1031.32 1031.25 1031.11 1030.90 1030.64 1030.32 1029.96 1029.55 1029.10 1028.57 1027.98 1027.30 1026.55 1025.71 1024.82 1023.91 1023.00 1022.13 1021.32 1020.61 1019.99 1019.46 1019.01 1018.59 1018.19 1017.77 1017.33 1016.85 1016.34 1015.82 1015.30
1025.02 1025.14 1025.27 1025.44 1025.67 1025.99 1026.40 1026.87 1027.40 1027.97 1028.54 1029.09 1029.60 1030.06 1030.45 1030.76 1030.98 1031.11 1031.14 1031.08 1030.95 1030.75 1030.49 1030.19 1029.86 1029.49 1029.07 1028.59 1028.02 1027.37 1026.61 1025.76 1024.82 1023.84 1022.86 1021.93 1021.07 1020.32 1019.70 1019.21 1018.80 1018.46 1018.15 1017.82 1017.45 1017.02 1016.53 1016.00 1015.44
1025.95 1026.09 1026.19 1026.29 1026.41 1026.59 1026.83 1027.13 1027.49 1027.90 1028.34 1028.81 1029.27 1029.71 1030.11 1030.44 1030.69 1030.85 1030.91 1030.87 1030.74 1030.54 1030.28 1029.99 1029.67 1029.32 1028.94 1028.49 1027.96 1027.33 1026.58 1025.72 1024.75 1023.73 1022.69 1021.70 1020.79 1020.01 1019.38 1018.91 1018.56 1018.29 1018.07 1017.84 1017.56 1017.21 1016.78 1016.27 1015.71
1026.82 1027.02 1027.15 1027.22 1027.26 1027.31 1027.39 1027.50 1027.68 1027.92 1028.22 1028.57 1028.96 1029.36 1029.76 1030.11 1030.39 1030.58 1030.66 1030.64 1030.51 1030.30 1030.04 1029.74 1029.42 1029.09 1028.72 1028.30 1027.81 1027.20 1026.47 1025.61 1024.64 1023.58 1022.50 1021.46 1020.51 1019.70 1019.05 1018.59 1018.28 1018.08 1017.95 1017.82 1017.64 1017.39 1017.04 1016.59 1016.06
1027.56 1027.88 1028.06 1028.14 1028.14 1028.09 1028.02 1027.96 1027.95 1028.02 1028.16 1028.39 1028.69 1029.05 1029.43 1029.80 1030.10 1030.32 1030.43 1030.42 1030.29 1030.08 1029.80 1029.49 1029.15 1028.81 1028.45 1028.05 1027.58 1027.00 1026.30 1025.46 1024.49 1023.43 1022.32 1021.25 1020.26 1019.41 1018.75 1018.28 1017.99 1017.85 1017.78 1017.75 1017.68 1017.53 1017.28 1016.91 1016.45
1028.16 1028.59 1028.85 1028.96 1028.93 1028.80 1028.62 1028.42 1028.24 1028.14 1028.14 1028.25 1028.46 1028.77 1029.13 1029.50 1029.83 1030.07 1030.20 1030.20 1030.08 1029.86 1029.56 1029.22 1028.87 1028.51 1028.15 1027.75 1027.30 1026.76 1026.10 1025.28 1024.34 1023.29 1022.18 1021.09 1020.07 1019.19 1018.50 1018.02 1017.73 1017.61 1017.60 1017.64 1017.66 1017.62 1017.48 1017.21 1016.83
1028.59 1029.10 1029.43 1029.56 1029.52 1029.34 1029.06 1028.74 1028.44 1028.21 1028.08 1028.09 1028.23 1028.49 1028.83 1029.20 1029.54 1029.81 1029.97 1029.98 1029.87 1029.64 1029.32 1028.96 1028.58 1028.20 1027.83 1027.44 1027.01 1026.50 1025.87 1025.11 1024.21 1023.19 1022.10 1021.01 1019.98 1019.07 1018.35 1017.84 1017.54 1017.41 1017.43 1017.51 1017.61 1017.66 1017.62 1017.47 1017.20
1028.86 1029.40 1029.74 1029.87 1029.81 1029.58 1029.24 1028.84 1028.45 1028.12 1027.91 1027.85 1027.94 1028.16 1028.49 1028.86 1029.22 1029.51 1029.69 1029.73 1029.63 1029.40 1029.08 1028.70 1028.30 1027.90 1027.52 1027.14 1026.73 1026.25 1025.67 1024.96 1024.11 1023.14 1022.10 1021.02 1019.99 1019.08 1018.32 1017.78 1017.44 1017.30 1017.30 1017.41 1017.56 1017.68 1017.73 1017.69 1017.53
Thickness
5712 5718 5722 5715 5699 5692 5697 5714 5725 5724 5727 5729 5731 5729 5719 5709 5704 5694 5701 5710 5711 5710 5709 5708 5708 5709 5709 5709 5710 5710 5710 5711 5712 5712 5713 5714 5714 5715 5715 5716 5716 5715 5715 5715 5715 5714 5714 5713 5713
5709 5715 5712 5702 5688 5684 5696 5713 5714 5716 5721 5725 5725 5723 5715 5705 5704 5700 5700 5704 5706 5706 5704 5703 5703 5704 5704 5704 5705 5705 5705 5706 5707 5707 5708 5709 5709 5710 5710 5711 5711 5711 5711 5711 5711 5710 5710 5709 5709
5705 5710 5699 5692 5688 5688 5697 5710 5710 5714 5720 5718 5712 5711 5705 5697 5698 5695 5695 5699 5701 5700 5699 5698 5697 5698 5699 5699 5699 5700 5700 5701 5701 5702 5702 5703 5704 5705 5706 5706 5706 5707 5707 5707 5707 5706 5705 5705 5705
5700 5696 5693 5684 5684 5695 5701 5706 5709 5707 5710 5712 5707 5697 5693 5692 5691 5690 5692 5694 5695 5694 5693 5692 5692 5692 5693 5693 5693 5694 5694 5694 5695 5696 5696 5698 5699 5699 5700 5701 5701 5702 5702 5702 5702 5702 5701 5701 5701
5693 5685 5676 5675 5683 5693 5701 5705 5707 5701 5699 5701 5700 5689 5680 5683 5686 5686 5686 5687 5687 5687 5686 5685 5685 5685 5686 5686 5687 5687 5688 5688 5689 5690 5690 5691 5693 5694 5694 5695 5696 5696 5697 5697 5697 5697 5697 5697 5697
5679 5678 5666 5667 5678 5688 5694 5700 5700 5694 5691 5692 5690 5683 5672 5677 5678 5678 5680 5680 5680 5680 5679 5678 5678 5678 5679 5680 5680 5681 5682 5682 5682 5683 5684 5685 5686 5687 5688 5689 5689 5690 5691 5691 5692 5692 5692 5692 5692
5669 5667 5664 5670 5671 5677 5685 5693 5688 5685 5680 5680 5683 5676 5667 5668 5670 5671 5672 5672 5672 5673 5672 5671 5670 5671 5671 5672 5673 5674 5675 5675 5675 5676 5677 5678 5679 5680 5681 5682 5683 5684 5685 5685 5686 5686 5687 5687 5687
5668 5663 5663 5664 5665 5667 5678 5682 5679 5675 5670 5675 5675 5665 5657 5659 5663 5663 5663 5663 5664 5664 5664 5663 5663 5664 5664 5664 5665 5666 5667 5668 5669 5669 5670 5671 5672 5673 5674 5676 5676 5677 5678 5679 5680 5680 5681 5681 5682
5664 5650 5650 5657 5659 5661 5668 5667 5667 5668 5662 5661 5659 5655 5653 5654 5654 5653 5652 5652 5653 5653 5654 5655 5655 5656 5657 5657 5657 5658 5660 5660 5661 5662 5663 5664 5665 5666 5667 5668 5669 5670 5671 5672 5673 5674 5675 5675 5676
5650 5640 5646 5653 5656 5655 5657 5656 5657 5656 5649 5645 5644 5644 5645 5645 5644 5642 5641 5640 5641 5642 5643 5645 5646 5647 5648 5649 5649 5650 5651 5652 5653 5654 5655 5656 5657 5658 5659 5660 5662 5663 5664 5665 5666 5667 5668 5669 5670
5643 5638 5643 5645 5648 5647 5644 5645 5649 5645 5637 5636 5634 5633 5634 5634 5633 5632 5631 5631 5631 5632 5633 5635 5636 5637 5638 5639 5640 5641 5642 5643 5644 5645 5646 5647 5648 5649 5650 5651 5653 5654 5655 5657 5658 5659 5660 5661 5662
5634 5634 5637 5635 5635 5635 5633 5634 5632 5629 5627 5631 5631 5629 5626 5624 5622 5622 5622 5622 5623 5623 5624 5625 5626 5627 5628 5629 5630 5631 5632 5633 5634 5635 5636 5637 5639 5639 5640 5642 5643 5645 5646 5648 5649 5651 5652 5653 5655
5624 5623 5625 5624 5624 5623 5623 5621 5618 5616 5620 5622 5622 5619 5616 5614 5613 5613 5613 5613 5613 5613 5613 5614 5616 5616 5617 5618 5619 5620 5622 5623 5624 5626 5626 5627 5628 5629 5630 5631 5633 5635 5636 5638 5640 5641 5643 5644 5646
5617 5615 5615 5614 5614 5614 5610 5610 5608 5608 5611 5610 5609 5607 5605 5604 5603 5602 5602 5602 5602 5602 5603 5604 5605 5605 5606 5607 5608 5609 5611 5612 5613 5615 5616 5617 5618 5618 5619 5621 5622 5624 5626 5628 5630 5632 5633 5634 5636
5608 5603 5603 5605 5605 5604 5600 5596 5600 5602 5601 5598 5597 5596 5594 5593 5592 5591 5591 5591 5591 5592 5593 5593 5594 5594 5595 5595 5597 5598 5599 5600 5602 5604 5605 5606 5606 5607 5608 5610 5612 5613 5615 5617 5619 5621 5622 5624 5625
5597 5593 5589 5597 5598 5595 5587 5586 5593 5595 5592 5588 5587 5585 5584 5582 5581 5580 5579 5579 5580 5580 5580 5581 5582 5582 5583 5584 5585 5587 5588 5589 5591 5592 5593 5594 5595 5596 5597 5599 5601 5602 5604 5606 5607 5609 5611 5611 5613
5583 5579 5583 5586 5590 5587 5580 5578 5582 5586 5584 5580 5578 5576 5574 5571 5570 5569 5568 5568 5568 5567 5567 5568 5570 5570 5571 5572 5574 5576 5576 5577 5579 5580 5581 5583 5583 5584 5586 5587 5589 5591 5593 5594 5595 5597 5598 5600 5601
5571 5574 5579 5577 5578 5576 5572 5571 5572 5575 5574 5571 5568 5566 5564 5561 5559 5558 5557 5557 5556 5556 5555 5556 5557 5558 5559 5560 5562 5564 5564 5564 5566 5568 5569 5571 5572 5573 5574 5575 5577 5579 5581 5582 5583 5584 5586 5588 5590
5568 5566 5565 5569 5569 5564 5562 5564 5563 5565 5563 5559 5558 5556 5552 5550 5549 5548 5546 5546 5545 5543 5543 5544 5545 5546 5547 5548 5548 5549 5550 5551 5554 5555 5557 5558 5560 5561 5562 5564 5565 5566 5568 5569 5571 5572 5573 5575 5578
5558 5553 5554 5558 5560 5556 5554 5555 5558 5557 5554 5551 5549 5546 5544 5541 5539 5538 5536 5534 5533 5532 5532 5532 5532 5533 5534 5535 5536 5537 5538 5539 5540 5542 5544 5546 5547 5548 5550 5551 5552 5554 5555 5557 5558 5560 5560 5563 5566
5546 5541 5541 5542 5545 5547 5542 5543 5547 5548 5546 5543 5540 5538 5537 5534 5530 5528 5526 5524 5522 5521 5520 5521 5521 5522 5522 5523 5524 5525 5525 5526 5527 5529 5531 5534 5536 5537 5538 5539 5541 5542 5543 5544 5545 5547 5549 5550 5552
5532 5536 5534 5531 5524 5525 5532 5520 5537 5538 5534 5533 5530 5527 5526 5525 5522 5518 5516 5513 5512 5510 5510 5510 5510 5510 5511 5511 5512 5512 5512 5513 5515 5516 5518 5521 5523 5525 5526 5528 5529 5530 5532 5533 5534 5536 5537 5538 5540
5524 5527 5525 5522 5517 5512 5521 5510 5524 5529 5524 5522 5520 5519 5518 5515 5512 5508 5506 5504 5502 5501 5500 5499 5499 5499 5499 5500 5500 5501 5501 5502 5503 5505 5507 5509 5511 5513 5515 5516 5518 5519 5520 5521 5523 5524 5526 5527 5529
5517 5516 5515 5513 5506 5495 5513 5507 5515 5518 5520 5517 5513 5510 5508 5505 5502 5498 5496 5494 5493 5491 5489 5488 5488 5488 5488 5488 5489 5489 5490 5490 5491 5493 5495 5497 5500 5502 5503 5504 5506 5508 5509 5511 5512 5513 5515 5516 5518
5505 5495 5489 5490 5487 5495 5513 5505 5506 5512 5514 5510 5505 5501 5498 5494 5490 5487 5485 5484 5483 5481 5480 5479 5478 5477 5477 5478 5478 5478 5478 5479 5480 5481 5483 5485 5488 5490 5492 5494 5495 5497 5499 5501 5502 5503 5504 5506 5508
5495 5492 5479 5478 5486 5497 5502 5499 5503 5505 5502 5501 5497 5492 5488 5484 5480 5478 5476 5474 5473 5472 5470 5468 5467 5467 5467 5467 5467 5467 5468 5468 5470 5471 5473 5475 5478 5480 5482 5484 5485 5487 5489 5490 5491 5493 5494 5496 5497
5490 5484 5487 5474 5472 5470 5491 5498 5495 5495 5490 5488 5485 5480 5476 5473 5470 5467 5466 5464 5463 5461 5459 5458 5457 5456 5456 5456 5456 5457 5457 5458 5459 5461 5463 5465 5468 5470 5472 5474 5475 5477 5478 5480 5481 5482 5483 5484 5486
5484 5482 5472 5465 5462 5469 5490 5492 5483 5478 5476 5474 5471 5467 5465 5462 5459 5457 5455 5454 5452 5450 5448 5447 5445 5444 5444 5444 5445 5446 5446 5447 5448 5450 5452 5455 5457 5460 5462 5463 5465 5466 5468 5470 5470 5471 5472 5474 5475
5473 5470 5466 5461 5462 5459 5463 5473 5482 5475 5471 5465 5461 5458 5454 5450 5447 5445 5444 5442 5441 5439 5437 5435 5434 5432 5432 5432 5433 5434 5435 5436 5437 5439 5441 5444 5446 5449 5451 5453 5455 5456 5458 5459 5460 5461 5462 5463 5464
5470 5466 5456 5443 5444 5450 5449 5458 5472 5467 5463 5458 5452 5448 5444 5440 5437 5435 5433 5431 5429 5427 5425 5424 5422 5421 5421 5421 5422 5424 5425 5426 5427 5429 5431 5434 5436 5439 5441 5443 5445 5446 5448 5449 5450 5451 5452 5453 5454